File timestamp: Sun Aug 21 03:00:00 2016, Internal temp: 17.4713134765625
1471748401, -0.0205112472176552, -0.0137265659868717, 0.0191149245947599, 33651, 32525, 23211, 52.7240982055664
1471748402, -0.0206183828413486, -0.0139655489474535, 0.018841614946723, 33641, 32517, 23207, NaN
1471748402, -0.0215811207890511, -0.0137235755100846, 0.0186366904526949, 33646, 32530, 23211, NaN
1471748403.008, -0.0223754420876503, -0.0140897398814559, 0.0188341122120619, 33647, 32529, 23199, NaN
1471748404.008, -0.0228896830230951, -0.0142092583701015, 0.0188432727009058, 33645, 32527, 23201, NaN
1471748405.008, -0.0228224825114012, -0.0148900896310806, 0.0187655314803123, 33640, 32516, 23204, NaN
1471748406.008, -0.0193076115101576, -0.0151814557611942, 0.0190561097115278, 33648, 32525, 23191, NaN
1471748406.008, -0.0103698084130883, -0.0147093143314123, 0.0186727456748486, 33635, 32522, 23207, NaN
1471748407.016, 0.00426718359813094, -0.0145123172551394, 0.0187206752598286, 33642, 32516, 23197, NaN
1471748408.016, 0.0245421286672354, -0.0141779500991106, 0.0184024255722761, 33641, 32521, 23211, NaN
1471748409.016, 0.0491751208901405, -0.0146228531375527, 0.0188494920730591, 33642, 32521, 23205, NaN
1471748410.016, 0.0774412676692009, -0.0142806563526392, 0.0188315287232399, 33631, 32531, 23200, NaN
1471748410.018, 0.106968589127064, -0.0145405065268278, 0.0189586617052555, 33649, 32530, 23196, NaN
1471748411.022, 0.0823512375354767, -0.0147990388795733, 0.0191092658787966, 33639, 32518, 23203, NaN
1471748412.022, 0.0483882799744606, -0.0153472386300564, 0.0190099142491817, 33653, 32530, 23201, NaN
1471748413.022, 0.0199036411941051, -0.0156246600672603, 0.0187243763357401, 33651, 32523, 23198, NaN
1471748414.022, -0.00358546175993979, -0.0161917507648468, 0.0185458138585091, 33643, 32526, 23208, NaN
1471748414.022, -0.0225483719259501, -0.0162076391279697, 0.0188735276460648, 33653, 32525, 23200, NaN
1471748415.026, -0.0374392122030258, -0.0159277077764273, 0.0190775338560343, 33646, 32526, 23203, NaN
1471748416.026, -0.0486951358616352, -0.0160056054592133, 0.0193714257329702, 33641, 32529, 23203, NaN
1471748417.026, -0.0567346438765526, -0.0160308834165335, 0.0191577635705471, 33644, 32522, 23204, NaN
1471748418.026, -0.0619560480117798, -0.0155574716627598, 0.019050570204854, 33655, 32528, 23201, NaN
1471748419.026, -0.0647361427545547, -0.0160622540861368, 0.0185923594981432, 33652, 32522, 23193, NaN
1471748420.026, -0.0654290616512299, -0.0167366154491901, 0.0188952255994081, 33649, 32524, 23204, NaN
1471748421.026, -0.0643654316663742, -0.0168478228151798, 0.0189154613763094, 33645, 32531, 23197, NaN
1471748422.026, -0.0618516951799393, -0.0165710169821978, 0.0192730855196714, 33659, 32530, 23196, NaN
1471748423.026, -0.058169774711132, -0.0165917500853539, 0.0191663578152657, 33652, 32524, 23202, NaN
1471748424.026, -0.0535769462585449, -0.0163500495254993, 0.0199267361313105, 33644, 32519, 23211, NaN
1471748425.026, -0.0483059547841549, -0.0163751523941755, 0.0199573934078217, 33655, 32525, 23207, NaN
1471748426.026, -0.0425653643906116, -0.0166479684412479, 0.0202890411019325, 33644, 32517, 23207, NaN
1471748427.026, -0.0365401245653629, -0.0163894072175026, 0.0198112986981869, 33650, 32514, 23201, NaN
1471748428.034, -0.0303923152387142, -0.016280522570014, 0.0200365670025349, 33654, 32515, 23188, NaN
1471748428.034, -0.0242620687931776, -0.0158378798514605, 0.0209921877831221, 33664, 32528, 23201, NaN
1471748429.042, -0.0182686280459166, -0.015543969348073, 0.0204627737402916, 33658, 32525, 23202, NaN
1471748430.042, -0.0125115318223834, -0.0151886120438576, 0.0201844703406096, 33641, 32523, 23207, NaN
1471748431.042, -0.00707188621163368, -0.0160133522003889, 0.0211511179804802, 33651, 32529, 23202, NaN
1471748432.042, -0.00201371870934963, -0.015857607126236, 0.0209082961082458, 33653, 32518, 23201, NaN
1471748432.042, 0.00261462666094303, -0.015596161596477, 0.0201510190963745, 33659, 32522, 23203, NaN
1471748433.05, 0.00677906069904566, -0.0161889512091875, 0.020664568990469, 33650, 32527, 23193, NaN
1471748434.05, 0.0104583147913218, -0.0160948764532804, 0.0197719875723124, 33641, 32525, 23204, NaN
1471748435.05, 0.0136425141245127, -0.0158194359391928, 0.020359355956316, 33652, 32520, 23200, NaN
1471748436.05, 0.0163317807018757, -0.0159532725811005, 0.0199544671922922, 33646, 32534, 23199, NaN
1471748437.05, 0.0185348745435476, -0.0155580677092075, 0.0201804768294096, 33649, 32520, 23212, NaN
1471748438.05, 0.0202678833156824, -0.015538920648396, 0.0210124291479588, 33651, 32516, 23188, NaN
1471748439.05, 0.0208861399441957, -0.0152280256152153, 0.0219411049038172, 33655, 32523, 23203, NaN
1471748440.05, 0.0194292385131121, -0.0153734683990479, 0.0209285095334053, 33647, 32528, 23198, NaN
1471748441.05, 0.015488151460886, -0.0147126791998744, 0.0206301417201757, 33653, 32550, 23205, NaN
1471748442.05, 0.010023164562881, -0.0146704828366637, 0.0209149736911058, 33648, 32522, 23192, NaN
1471748443.05, 0.00463909842073917, -0.014636947773397, 0.0214162357151508, 33641, 32523, 23201, NaN
1471748444.05, -0.000535702973138541, -0.0153901483863592, 0.0206742081791162, 33643, 32534, 23200, NaN
1471748445.05, -0.00540941813960671, -0.0155184045433998, 0.0201881490647793, 33660, 32531, 23192, NaN
1471748446.05, -0.00934348534792662, -0.0151505256071687, 0.0200446117669344, 33647, 32535, 23206, NaN
1471748447.05, -0.0107439132407308, -0.0148330489173532, 0.0196601189672947, 33646, 32521, 23203, NaN
1471748448.05, -0.0107729155570269, -0.0148693090304732, 0.0192995648831129, 33631, 32528, 23203, NaN
1471748449.05, -0.0103809656575322, -0.0154610006138682, 0.0193649921566248, 33644, 32531, 23194, NaN
1471748450.05, -0.00897298287600279, -0.0154627151787281, 0.0187325701117516, 33655, 32525, 23198, NaN
1471748451.05, -0.0054472666233778, -0.0157781932502985, 0.0181221421808004, 33650, 32524, 23203, NaN
1471748452.05, -0.00238903053104877, -0.0155801251530647, 0.0182268712669611, 33644, 32535, 23203, NaN
1471748453.05, -0.000600555504206568, -0.0161995086818933, 0.0180650558322668, 33650, 32527, 23206, NaN
1471748454.05, 0.00107361981645226, -0.0163598451763391, 0.0176464579999447, 33645, 32527, 23195, NaN
1471748455.06, 0.00405432609841228, -0.0165509972721338, 0.017850736156106, 33657, 32528, 23199, 52.3229293823242
1471748455.06, 0.0074854027479887, -0.0168269649147987, 0.0181154571473598, 33647, 32526, 23198, NaN
1471748456.068, 0.0111566642299294, -0.0161427054554224, 0.0182452760636806, 33638, 32523, 23212, NaN
1471748457.068, 0.0165778826922178, -0.0167772695422173, 0.017274297773838, 33652, 32521, 23193, NaN
1471748458.066, 0.0217221956700087, -0.0160584691911936, 0.0175226423889399, 33658, 32532, 23189, NaN
1471748459.066, 0.0254562143236399, -0.0166981555521488, 0.0172108002007008, 33658, 32534, 23195, NaN
1471748459.066, 0.028665903955698, -0.0169403795152903, 0.0175223518162966, 33651, 32538, 23195, NaN
1471748460.074, 0.0319755263626575, -0.0165447536855936, 0.0171704683452845, 33646, 32531, 23205, NaN
1471748461.074, 0.0339653640985489, -0.0165459867566824, 0.0167223531752825, 33654, 32534, 23200, NaN
1471748462.074, 0.0352165959775448, -0.0163599643856287, 0.0172317326068878, 33650, 32523, 23204, NaN
1471748463.074, 0.0360306017100811, -0.0164467785507441, 0.0178461745381355, 33652, 32531, 23200, NaN
1471748463.074, 0.0361793823540211, -0.0164367202669382, 0.0180674362927675, 33653, 32536, 23198, NaN
1471748464.08, 0.0361907668411732, -0.0165594927966595, 0.0180884376168251, 33644, 32533, 23205, NaN
1471748465.08, 0.0354797318577766, -0.0175317991524935, 0.0181678682565689, 33659, 32529, 23207, NaN
1471748466.08, 0.0348070785403252, -0.0175229385495186, 0.0182596016675234, 33654, 32524, 23207, NaN
1471748467.08, 0.0334602668881416, -0.0169373825192451, 0.0179791077971458, 33644, 32529, 23214, NaN
1471748467.08, 0.0307379998266697, -0.0162714403122663, 0.0176036115735769, 33641, 32528, 23200, NaN
1471748468.084, 0.027036314830184, -0.016515601426363, 0.0175965242087841, 33654, 32516, 23195, NaN
1471748469.084, 0.0224425736814737, -0.0171474143862724, 0.0177497416734695, 33658, 32524, 23193, NaN
1471748470.084, 0.0174581184983253, -0.0165528077632189, 0.0175551008433104, 33638, 32526, 23200, NaN
1471748471.084, 0.012448888272047, -0.017080295830965, 0.0178207773715258, 33644, 32519, 23203, NaN
1471748472.084, 0.0078778974711895, -0.0167144685983658, 0.0178593248128891, 33648, 32530, 23209, NaN
1471748473.084, 0.0038704730104655, -0.0171660855412483, 0.0182843171060085, 33652, 32531, 23205, NaN
1471748474.084, -0.000271091237664223, -0.017929844558239, 0.0176349058747292, 33649, 32523, 23206, NaN
1471748475.084, -0.00517208268865943, -0.0171534009277821, 0.0176256876438856, 33643, 32525, 23205, NaN
1471748476.084, -0.00862629804760218, -0.0169555079191923, 0.0174060016870499, 33656, 32530, 23205, NaN
1471748477.084, -0.0109276976436377, -0.0164825152605772, 0.0166104640811682, 33657, 32520, 23204, NaN
1471748478.084, -0.0126148061826825, -0.0165572036057711, 0.0166586078703403, 33652, 32525, 23205, NaN
1471748479.084, -0.0128507409244776, -0.0166633110493422, 0.0164710450917482, 33646, 32515, 23205, NaN
1471748480.092, -0.0129618067294359, -0.0166447106748819, 0.0164157692342997, 33646, 32529, 23212, NaN
1471748481.092, -0.0140108503401279, -0.0158596932888031, 0.0163308009505272, 33651, 32535, 23196, NaN
1471748481.092, -0.014164031483233, -0.0153704853728414, 0.0160705614835024, 33644, 32526, 23202, NaN
1471748482.1, -0.0141682550311089, -0.0153876142576337, 0.0158046167343855, 33646, 32539, 23206, NaN
1471748483.1, -0.0144216790795326, -0.0156192975118756, 0.0159457921981812, 33650, 32532, 23211, NaN
1471748484.1, -0.015068331733346, -0.0166338700801134, 0.0163977276533842, 33648, 32523, 23197, NaN
1471748485.1, -0.0154705047607422, -0.0161487478762865, 0.0154642509296536, 33650, 32520, 23202, NaN
1471748485.1, -0.0150013566017151, -0.0164270270615816, 0.0154592795297503, 33647, 32526, 23206, NaN
1471748486.106, -0.0129067935049534, -0.0157148856669664, 0.0151918362826109, 33656, 32532, 23189, NaN
1471748487.106, -0.00999862421303988, -0.0154754351824522, 0.0146418139338493, 33657, 32526, 23191, NaN
1471748488.106, -0.00757765024900436, -0.0158839877694845, 0.0141198560595512, 33646, 32535, 23191, NaN
1471748489.106, -0.00575993815436959, -0.0159365348517895, 0.0141123393550515, 33645, 32523, 23202, NaN
1471748489.106, -0.00514003355056047, -0.0158245041966438, 0.0137136364355683, 33646, 32532, 23207, NaN
1471748490.112, -0.00583524350076914, -0.0156791433691978, 0.0143108358606696, 33625, 32528, 23210, NaN
1471748491.112, -0.00626452546566725, -0.0161813981831074, 0.0139095950871706, 33651, 32531, 23205, NaN
1471748492.112, -0.00757676549255848, -0.0161659624427557, 0.0134531296789646, 33656, 32540, 23196, NaN
1471748493.112, -0.00823055580258369, -0.0158679652959108, 0.0130411665886641, 33657, 32526, 23197, NaN
1471748494.112, -0.00879237242043018, -0.0160433016717434, 0.013165183365345, 33647, 32530, 23208, NaN
1471748495.112, -0.00933180190622807, -0.0167618133127689, 0.0128875961527228, 33640, 32530, 23207, NaN
1471748496.112, -0.0100323539227247, -0.0167842600494623, 0.0125346183776855, 33635, 32518, 23206, NaN
1471748497.112, -0.00890173017978668, -0.0174446627497673, 0.0125083457678556, 33651, 32527, 23202, NaN
1471748498.112, -0.00448200618848205, -0.0171341635286808, 0.0135456034913659, 33650, 32523, 23196, NaN
1471748499.112, 0.00646855076774955, -0.0169713012874126, 0.0130602801218629, 33648, 32520, 23211, NaN
1471748500.112, 0.0245931968092918, -0.0169298648834229, 0.0139186512678862, 33640, 32528, 23200, NaN
1471748501.112, 0.0513618551194668, -0.017305064946413, 0.0140970004722476, 33641, 32528, 23213, NaN
1471748502.112, 0.0832154229283333, -0.0172385778278112, 0.0135790724307299, 33657, 32533, 23191, NaN
1471748503.112, 0.0882957726716995, -0.016754861921072, 0.0136565864086151, 33648, 32529, 23207, NaN
1471748504.112, 0.0587592795491219, -0.0167555063962936, 0.012827068567276, 33646, 32525, 23202, NaN
1471748505.112, 0.0336407758295536, -0.0167698133736849, 0.0135813932865858, 33654, 32531, 23196, NaN
1471748506.112, 0.012578135356307, -0.0167336072772741, 0.0136717753484845, 33648, 32543, 23199, NaN
1471748507.12, -0.00478299334645271, -0.0167804900556803, 0.0130939306691289, 33637, 32524, 23212, NaN
1471748507.12, -0.0187878273427486, -0.0172638352960348, 0.0130249075591564, 33647, 32526, 23207, 53.1493034362793
1471748508.128, -0.0297710280865431, -0.0175728090107441, 0.0131534608080983, 33655, 32536, 23203, NaN
1471748509.128, -0.0380552858114243, -0.0177748315036297, 0.013614465482533, 33654, 32526, 23190, NaN
1471748510.128, -0.0439499989151955, -0.0186360161751509, 0.0137134725227952, 33654, 32537, 23192, NaN
1471748511.128, -0.0477500408887863, -0.0183589980006218, 0.0149211613461375, 33654, 32525, 23192, NaN
1471748511.128, -0.0497346892952919, -0.0190643481910229, 0.0155527414754033, 33650, 32531, 23203, NaN
1471748512.136, -0.0501667335629463, -0.0188906583935022, 0.0163123439997435, 33662, 32518, 23203, NaN
1471748513.136, -0.0492917411029339, -0.0187611281871796, 0.016759367659688, 33638, 32546, 23218, NaN
1471748514.136, -0.0473375543951988, -0.0187402609735727, 0.0162304267287254, 33652, 32531, 23208, NaN
1471748515.136, -0.0445139519870281, -0.019893629476428, 0.0156572479754686, 33639, 32531, 23206, NaN
1471748515.136, -0.0410125218331814, -0.0206959787756205, 0.0153346853330731, 33644, 32523, 23193, NaN
1471748516.142, -0.0370067171752453, -0.0206313468515873, 0.0144043890759349, 33644, 32538, 23198, NaN
1471748517.142, -0.0326520763337612, -0.0204495023936033, 0.0141322053968906, 33660, 32528, 23194, NaN
1471748518.142, -0.0280866157263517, -0.019782904535532, 0.0145298298448324, 33642, 32531, 23206, NaN
1471748519.142, -0.0234313700348139, -0.0197064448148012, 0.0144355399534106, 33643, 32530, 23188, NaN
1471748520.142, -0.0187910459935665, -0.0194110758602619, 0.0152139430865645, 33644, 32541, 23212, NaN
1471748521.142, -0.014254798181355, -0.0201446339488029, 0.014543604105711, 33663, 32530, 23206, NaN
1471748522.142, -0.00989709701389074, -0.0205559246242046, 0.0149911269545555, 33655, 32529, 23204, NaN
1471748523.142, -0.00577866425737739, -0.0209986325353384, 0.0157603621482849, 33657, 32529, 23204, NaN
1471748524.142, -0.00194747222121805, -0.0205994658172131, 0.0155803738161922, 33641, 32524, 23210, NaN
1471748525.142, 0.00156022305600345, -0.0197400450706482, 0.0153701156377792, 33647, 32529, 23195, NaN
1471748526.142, 0.00471882289275527, -0.0202985052019358, 0.0151293147355318, 33644, 32518, 23211, NaN
1471748527.142, 0.0075123212300241, -0.0205322727560997, 0.0154594331979752, 33649, 32524, 23197, NaN
1471748528.142, 0.00993324164301157, -0.0207118764519691, 0.0148041741922498, 33654, 32539, 23202, NaN
1471748529.142, 0.0119815999642015, -0.0204179529100657, 0.0147039629518986, 33642, 32515, 23207, NaN
1471748530.142, 0.0136638879776001, -0.019734026864171, 0.0144371706992388, 33635, 32522, 23194, NaN
1471748531.142, 0.0149920973926783, -0.0202968828380108, 0.0152902258560061, 33649, 32528, 23195, NaN
1471748532.142, 0.0159827992320061, -0.0206248890608549, 0.0148879839107394, 33649, 32529, 23197, NaN
1471748533.152, 0.0165859144181013, -0.020737674087286, 0.0149552542716265, 33638, 32528, 23206, NaN
1471748534.152, 0.0147656695917249, -0.0210773404687643, 0.0156907308846712, 33647, 32529, 23213, NaN
1471748534.152, 0.0103433318436146, -0.0215834602713585, 0.0154694747179747, 33659, 32536, 23204, NaN
1471748535.16, 0.00445792358368635, -0.0221380777657032, 0.0154856313019991, 33643, 32526, 23211, NaN
1471748536.16, -0.00307207810692489, -0.0226039886474609, 0.0155175030231476, 33654, 32521, 23204, NaN
1471748537.16, -0.0103295622393489, -0.0232542157173157, 0.016129681840539, 33654, 32529, 23191, NaN
1471748538.16, -0.0165396425873041, -0.0230850912630558, 0.0167685858905315, 33644, 32526, 23199, NaN
1471748538.16, -0.0212279073894024, -0.0223752241581678, 0.0168026480823755, 33646, 32518, 23202, NaN
1471748539.166, -0.0236937068402767, -0.0220961924642324, 0.0163641329854727, 33655, 32523, 23204, NaN
1471748540.166, -0.025092476978898, -0.0223300233483315, 0.0166811496019363, 33641, 32539, 23205, NaN
1471748541.166, -0.0247587971389294, -0.0214925687760115, 0.0162272676825523, 33649, 32522, 23202, NaN
1471748542.166, -0.0234416406601667, -0.0205913465470076, 0.0167295467108488, 33649, 32531, 23200, NaN
1471748542.166, -0.0200331080704927, -0.0208944361656904, 0.0175342373549938, 33649, 32529, 23199, NaN
1471748543.172, -0.014604969881475, -0.0203046873211861, 0.0181504171341658, 33640, 32523, 23210, NaN
1471748544.172, -0.00815054122358561, -0.0200781654566526, 0.0180517937988043, 33642, 32514, 23204, NaN
1471748545.172, -0.00165785104036331, -0.0202141348272562, 0.0179044008255005, 33660, 32525, 23201, NaN
1471748546.172, 0.0041976235806942, -0.0203267987817526, 0.0179841816425323, 33664, 32525, 23192, NaN
1471748546.172, 0.00889531616121531, -0.0200254805386066, 0.018061188980937, 33644, 32530, 23206, NaN
1471748547.176, 0.0125707434490323, -0.0190733764320612, 0.0179613772779703, 33644, 32533, 23200, NaN
1471748548.176, 0.0168732162564993, -0.0180313568562269, 0.0175223145633936, 33650, 32533, 23215, NaN
1471748549.176, 0.0215067006647587, -0.0181916765868664, 0.0171547885984182, 33649, 32527, 23191, NaN
1471748550.176, 0.0265420358628035, -0.0193861648440361, 0.0166506115347147, 33641, 32529, 23199, NaN
1471748551.176, 0.0299769174307585, -0.0198795143514872, 0.0172383897006512, 33632, 32527, 23209, NaN
1471748552.176, 0.0322063900530338, -0.0196699649095535, 0.0168501399457455, 33660, 32524, 23197, NaN
1471748553.176, 0.0343809686601162, -0.018864206969738, 0.0167696587741375, 33638, 32524, 23208, NaN
1471748554.176, 0.0357444696128368, -0.0184959247708321, 0.017190907150507, 33651, 32531, 23194, NaN
1471748555.176, 0.0365963615477085, -0.0188836865127087, 0.0176565386354923, 33639, 32531, 23205, NaN
1471748556.176, 0.0366873517632484, -0.0184732973575592, 0.0171309560537338, 33648, 32531, 23202, NaN
1471748557.176, 0.036628719419241, -0.0185766778886318, 0.0170819535851479, 33655, 32525, 23199, NaN
1471748558.184, 0.0356256254017353, -0.0185757670551538, 0.0169637855142355, 33646, 32530, 23187, NaN
1471748559.184, 0.0343964844942093, -0.0182562340050936, 0.0169361587613821, 33647, 32525, 23213, NaN
1471748559.184, 0.0328724421560764, -0.0178400669246912, 0.0168118085712194, 33656, 32517, 23208, NaN
1471748560.192, 0.0315581634640694, -0.0173557978123426, 0.0170380864292383, 33646, 32519, 23195, 53.564022064209
1471748561.192, 0.0314700044691563, -0.0169112998992205, 0.0162810627371073, 33643, 32522, 23199, NaN
1471748562.192, 0.0309302676469088, -0.0169482044875622, 0.0163935124874115, 33649, 32522, 23206, NaN
1471748563.192, 0.0301236230880022, -0.0181617476046085, 0.0164907183498144, 33639, 32535, 23214, NaN
1471748563.192, 0.0291170626878738, -0.0182375852018595, 0.0167751666158438, 33653, 32524, 23199, NaN
1471748564.198, 0.0274385362863541, -0.0186814144253731, 0.0173368118703365, 33642, 32523, 23209, NaN
1471748565.198, 0.0252161230891943, -0.0187631901353598, 0.0174283068627119, 33652, 32534, 23197, NaN
1471748566.198, 0.0228077284991741, -0.0184615254402161, 0.0180838033556938, 33643, 32517, 23214, NaN
1471748567.198, 0.0195984654128551, -0.01823347248137, 0.0183354523032904, 33652, 32524, 23195, NaN
1471748568.198, 0.0163833051919937, -0.0177996829152107, 0.01815065741539, 33648, 32526, 23210, NaN
1471748569.198, 0.0130438366904855, -0.017423989251256, 0.0189524535089731, 33652, 32531, 23194, NaN
1471748570.198, 0.0101522104814649, -0.0177631713449955, 0.0190846063196659, 33642, 32533, 23208, NaN
1471748571.198, 0.00642318138852715, -0.0177866499871016, 0.0191138535737991, 33650, 32521, 23190, NaN
1471748572.198, 0.00166495668236166, -0.0176566764712334, 0.0190293174237013, 33643, 32517, 23202, NaN
1471748573.198, -0.00466770166531205, -0.0173874236643314, 0.0188930723816156, 33640, 32539, 23207, NaN
1471748574.198, -0.0105451997369528, -0.0185766983777285, 0.0179596245288849, 33656, 32528, 23202, NaN
1471748575.198, -0.0153428483754396, -0.0191805697977543, 0.018650196492672, 33636, 32533, 23208, NaN
1471748576.198, -0.0191447455435991, -0.0192618649452925, 0.0195280164480209, 33657, 32528, 23198, NaN
1471748577.198, -0.0222395490854979, -0.0193855036050081, 0.0195799097418785, 33635, 32530, 23206, NaN
1471748578.198, -0.0240455642342567, -0.0191412661224604, 0.0190622415393591, 33653, 32523, 23190, NaN
1471748579.198, -0.025798998773098, -0.0205581355839968, 0.018912747502327, 33653, 32520, 23208, NaN
1471748580.198, -0.0269393995404243, -0.0207451563328505, 0.0191142354160547, 33644, 32525, 23207, NaN
1471748581.198, -0.028421213850379, -0.0200766902416945, 0.0189315546303988, 33641, 32524, 23213, NaN
1471748582.198, -0.0301890652626753, -0.0201302003115416, 0.0185439102351665, 33647, 32523, 23187, NaN
1471748583.198, -0.0303374752402306, -0.0198199711740017, 0.0180914793163538, 33647, 32528, 23201, NaN
1471748584.198, -0.0307508911937475, -0.0202846191823483, 0.0173649527132511, 33651, 32525, 23189, NaN
1471748585.198, -0.0306496042758226, -0.0209415275603533, 0.0175931770354509, 33635, 32524, 23221, NaN
1471748586.206, -0.030390452593565, -0.0211834292858839, 0.0176307242363691, 33643, 32525, 23204, NaN
1471748587.206, -0.0288728047162294, -0.0207580029964447, 0.0173561666160822, 33651, 32527, 23205, NaN
1471748587.206, -0.0270039867609739, -0.0210903529077768, 0.0171263627707958, 33634, 32528, 23214, NaN
1471748588.214, -0.0251010209321976, -0.0211962200701237, 0.0169883314520121, 33643, 32524, 23206, NaN
1471748589.214, -0.0239299554377794, -0.0204409770667553, 0.0161633621901274, 33661, 32515, 23200, NaN
1471748590.214, -0.0227234121412039, -0.0204933825880289, 0.0156958252191544, 33646, 32528, 23204, NaN
1471748591.214, -0.0213909801095724, -0.019896125420928, 0.0156193133443594, 33663, 32534, 23197, NaN
1471748591.214, -0.0208096597343683, -0.020005002617836, 0.0163720808923244, 33642, 32525, 23210, NaN
1471748592.22, -0.0200052764266729, -0.0208925772458315, 0.0163389276713133, 33641, 32528, 23201, NaN
1471748593.22, -0.0181493200361729, -0.021382499486208, 0.0159567128866911, 33641, 32533, 23204, NaN
1471748594.22, -0.0158362369984388, -0.0218476112931967, 0.0163254793733358, 33645, 32523, 23198, NaN
1471748595.22, -0.0134852854534984, -0.0217144619673491, 0.0161251313984394, 33644, 32535, 23194, NaN
1471748595.22, -0.0106236897408962, -0.0213355869054794, 0.0160329658538103, 33653, 32523, 23196, NaN
1471748596.224, -0.00679484289139509, -0.0215876325964928, 0.0156611613929272, 33644, 32521, 23194, NaN
1471748597.224, -0.00304765650071204, -0.0223940648138523, 0.0146533800289035, 33645, 32538, 23205, NaN
1471748598.224, -5.23087510373443e-05, -0.0226533487439156, 0.014619660563767, 33663, 32524, 23194, NaN
1471748599.224, 0.00198042974807322, -0.022656736895442, 0.0140906721353531, 33650, 32519, 23197, NaN
1471748599.224, 0.00389609206467867, -0.0217917412519455, 0.0140881957486272, 33640, 32521, 23200, NaN
1471748600.228, 0.00568345934152603, -0.0214229822158813, 0.014993011020124, 33644, 32522, 23203, NaN
1471748601.228, 0.00752308219671249, -0.0206601433455944, 0.0153006408363581, 33654, 32534, 23203, NaN
1471748602.228, 0.00869569461792707, -0.0206451024860144, 0.015176871791482, 33652, 32529, 23197, NaN
1471748603.228, 0.0104656349867582, -0.0210878606885672, 0.0153108844533563, 33645, 32532, 23200, NaN
1471748603.228, 0.0122155724093318, -0.0213861688971519, 0.0157445184886456, 33655, 32523, 23206, NaN
1471748604.23, 0.0139096854254603, -0.0205632746219635, 0.0162350293248892, 33657, 32520, 23206, NaN
1471748605.23, 0.0153281800448895, -0.0207834281027317, 0.0162040200084448, 33645, 32530, 23198, NaN
1471748606.23, 0.0179656520485878, -0.0199658665806055, 0.0161476843059063, 33649, 32535, 23195, NaN